Location: Azul
(36.7830°S, 59.8500°W)
Time: 02:09:23
(UTC-03:00)

NOAA 19 - Visible Passes

Search period start: 23 October 2021 00:00
Search period end: 02 November 2021 00:00
Orbit: 840 x 861 km, 99.2° (Epoch: 22 October)

Date Brightness Start Highest point End Pass type
(mag) Time Alt. Az. Time Alt. Az. Time Alt. Az.
23 Oct 5.3 20:10:35 10° SSE 20:16:07 55° E 20:21:33 10° N visible
23 Oct 7.8 21:52:24 10° SSW 21:56:16 19° WSW 22:00:07 10° WNW visible
24 Oct 5.6 19:58:57 10° SSE 20:04:17 42° E 20:09:32 10° N visible
24 Oct 7.5 21:40:11 10° SSW 21:44:37 24° WSW 21:49:00 10° WNW visible
25 Oct 5.9 19:47:23 10° SE 19:52:25 33° E 19:57:23 10° NNE visible
25 Oct 7.1 21:28:05 10° S 21:32:56 31° WSW 21:37:44 10° NW visible
26 Oct 6.7 21:16:04 10° S 21:21:14 39° WSW 21:26:21 10° NW visible
27 Oct 6.2 21:04:06 10° S 21:09:30 50° WSW 21:14:51 10° NW visible
28 Oct 5.7 20:52:12 10° S 20:57:46 64° WSW 21:03:15 10° NNW visible
29 Oct 5.4 20:40:21 10° SSE 20:46:00 82° WSW 20:51:34 10° NNW visible
29 Oct 8.4 22:24:43 10° SW 22:25:42 10° WSW 22:26:41 10° WSW visible
30 Oct 5.2 20:28:34 10° SSE 20:34:13 79° ENE 20:39:46 10° N visible
30 Oct 8.1 22:11:26 10° SSW 22:14:06 14° WSW 22:16:45 10° W visible
31 Oct 5.3 20:16:49 10° SSE 20:22:24 61° ENE 20:27:53 10° N visible
31 Oct 7.9 21:58:54 10° SSW 22:02:28 18° WSW 22:06:01 10° WNW visible
01 Nov 5.5 20:05:09 10° SSE 20:10:34 47° E 20:15:54 10° N visible
01 Nov 7.6 21:46:37 10° SSW 21:50:50 22° WSW 21:54:59 10° WNW visible
